Tracking 30009 objects as of 7-Dec-2024
HD Live streaming from Space Station
objects crossing your sky now

STARLINK-30592

Track STARLINK-30592 now!
10-day predictions
STARLINK-30592 is classified as:


NORAD ID: 58102
Int'l Code: 2023-161F
Perigee: 481.5 km
Apogee: 483.2 km
Inclination: 53.2 °
Period: 94.1 minutes
Semi major axis: 6853 km
RCS: Unknown
Launch date: October 21, 2023
Source: United States (US)
Launch site: AIR FORCE WESTERN TEST RANGE (AFWTR)
Your satellite tracking list
Your tracking list is empty




NASA's NSSDC Master Catalog

Two Line Element Set (TLE):
1 58102U 23161F   24342.15935543  .00003653  00000-0  13537-3 0  9998
2 58102  53.1597 130.5767 0001217  81.4757 278.6382 15.30203515 64247
Source of the keplerian elements: AFSPC